This is the latest recevied weather packets stored in our database for station/object SQ9RHX-11. If no packets are shown the sender has not sent any weather packets the latest 10 day(s).
| Time | Temp. | Humidity | Pressure | Rain* | Wind** | Luminosity | Snow |
|---|---|---|---|---|---|---|---|
| 1788404848 | 11.67° C | 91% | 1020.8 hPa | - | - | - | - |
| 1788403049 | 11.11° C | 91% | 1021 hPa | - | - | - | - |
| 1788401249 | 11.11° C | 90% | 1021 hPa | - | - | - | - |
| 1788399450 | 10.56° C | 90% | 1021.1 hPa | - | - | - | - |
| 1788397651 | 10.56° C | 89% | 1021.2 hPa | - | - | - | - |
| 1788395851 | 10.56° C | 88% | 1021.2 hPa | - | - | - | - |
| 1788394052 | 11.11° C | 87% | 1021.1 hPa | - | - | - | - |
| 1788392252 | 12.22° C | 84% | 1021.3 hPa | - | - | - | - |
| 1788390452 | 15° C | 82% | 1021.6 hPa | - | - | - | - |
| 1788388653 | 13.33° C | 85% | 1021.5 hPa | - | - | - | - |
| 1788386853 | 13.33° C | 87% | 1021.7 hPa | - | - | - | - |
| 1788385053 | 13.89° C | 86% | 1021.2 hPa | - | - | - | - |
| 1788383254 | 14.44° C | 85% | 1021.2 hPa | - | - | - | - |
| 1788381454 | 13.89° C | 84% | 1021.1 hPa | - | - | - | - |
| 1788379654 | 13.33° C | 83% | 1021 hPa | - | - | - | - |
| 1788377855 | 13.33° C | 82% | 1021 hPa | - | - | - | - |
| 1788376056 | 13.89° C | 79% | 1021.1 hPa | - | - | - | - |
| 1788374257 | 15° C | 76% | 1021.2 hPa | - | - | - | - |
| 1788372458 | 16.11° C | 70% | 1021.1 hPa | - | - | - | - |
| 1788370659 | 17.78° C | 67% | 1020.8 hPa | - | - | - | - |
| 1788368859 | 18.89° C | 60% | 1020.5 hPa | - | - | - | - |
| 1788367060 | 20.56° C | 54% | 1020.4 hPa | - | - | - | - |
| 1788365261 | 21.11° C | 48% | 1020.5 hPa | - | - | - | - |
| 1788363462 | 23.33° C | 42% | 1020.7 hPa | - | - | - | - |
| 1788361661 | 23.89° C | 43% | 1020.9 hPa | - | - | - | - |
* Rain since midnight (hover to see other rain measurements)
** Current wind speed in m/s (hover to see current wind gust speed)